Lawton, OK

1:09 AM CST on November 24, 2017 (GMT -0600)
Lawton-Fort Sill Regional

Weather History for KLAW - April, 2014

Change the Weather History Date:

Saturday, April 26, 2014

  Actual Average Record
Temperature  
Mean Temperature 73 °F -  
Max Temperature 90 °F 76 °F 94 °F (1959)
Min Temperature 57 °F 52 °F 36 °F (1983)
Cooling Degree Days 8    
Growing Degree Days 23 (Base 50)    
Moisture  
Dew Point 57 °F    
Average Humidity 57    
Maximum Humidity 76    
Minimum Humidity 36    
Precipitation  
Precipitation 0.00 in - - ()
Sea Level Pressure  
Sea Level Pressure 29.63 in    
Wind  
Wind Speed 12 mph (SSE)    
Max Wind Speed 25 mph    
Max Gust Speed 38 mph    
Visibility 10 miles    
Events Rain    
Averages and records for this station are not official NWS values.
T = Trace of Precipitation, MM = Missing Value Source: NWS Daily Summary

Daily Weather History Graph

Daily Weather History Graph

Search for Another Location

Airport or City:

Trip Planner

Search our weather history database for the weather conditions in past years. The results will help you decide how hot, cold, wet, or windy it might be!

Date:

Astronomy

Apr. 26, 2014 Rise Set
Actual Time 6:48 AM CDT 8:14 PM CDT
Civil Twilight 6:22 AM CDT 8:41 PM CDT
Nautical Twilight 5:50 AM CDT 9:12 PM CDT
Astronomical Twilight 5:17 AM CDT 9:46 PM CDT
Moon 5:06 AM CDT (4/26) 5:50 PM CDT (4/26)
Length of Visible Light 14h 18m
Length of Day
13h 25m
Waning Crescent, 8% of the Moon is Illuminated
Apr 26
Waning Crescent
Apr 29
New
May 6
First Quarter
May 14
Full
May 21
Last Quarter

Hourly Weather History & Observations

Time (CDT) Temp. Heat Index Dew Point Humidity Pressure Visibility Wind Dir Wind Speed Gust Speed Precip Events Conditions
12:53 AM 66.9 °F - 45.0 °F 45% 29.77 in 10.0 mi SE 10.4 mph - N/A   Clear
1:53 AM 63.0 °F - 46.0 °F 54% 29.76 in 10.0 mi SE 5.8 mph - N/A   Clear
2:53 AM 61.0 °F - 46.0 °F 58% 29.75 in 10.0 mi ESE 4.6 mph - N/A   Clear
3:53 AM 59.0 °F - 46.0 °F 62% 29.73 in 10.0 mi ESE 6.9 mph - N/A   Clear
4:53 AM 57.9 °F - 46.9 °F 67% 29.73 in 10.0 mi East 4.6 mph - N/A   Clear
5:53 AM 59.0 °F - 48.0 °F 67% 29.73 in 10.0 mi ESE 6.9 mph - 0.00 in   Clear
6:53 AM 62.1 °F - 48.9 °F 62% 29.72 in 10.0 mi SE 6.9 mph - N/A   Clear
7:53 AM 64.0 °F - 52.0 °F 65% 29.73 in 10.0 mi SSE 8.1 mph - N/A   Clear
8:53 AM 66.9 °F - 55.9 °F 68% 29.73 in 10.0 mi SE 9.2 mph - N/A   Clear
9:53 AM 73.9 °F - 60.1 °F 62% 29.71 in 10.0 mi SSE 13.8 mph 19.6 mph N/A   Clear
10:53 AM 79.0 °F - 62.1 °F 56% 29.68 in 10.0 mi South 13.8 mph 26.5 mph N/A   Clear
11:53 AM 82.9 °F 83.7 °F 62.1 °F 49% 29.65 in 10.0 mi SSE 18.4 mph 26.5 mph N/A   Clear
12:53 PM 84.0 °F 83.8 °F 59.0 °F 43% 29.62 in 10.0 mi South 18.4 mph 32.2 mph N/A   Clear
1:53 PM 86.0 °F 85.0 °F 57.9 °F 38% 29.59 in 10.0 mi South 20.7 mph 32.2 mph N/A   Clear
2:53 PM 87.1 °F 86.1 °F 57.9 °F 37% 29.57 in 10.0 mi South 21.9 mph 38.0 mph N/A   Clear
3:53 PM 89.1 °F 88.2 °F 59.0 °F 36% 29.55 in 10.0 mi South 21.9 mph 31.1 mph N/A   Clear
4:53 PM 84.9 °F 85.9 °F 63.0 °F 48% 29.52 in 9.0 mi SSE 21.9 mph 29.9 mph 0.00 in Rain Light Rain
5:53 PM 84.0 °F 84.5 °F 62.1 °F 47% 29.51 in 10.0 mi SSE 21.9 mph 29.9 mph 0.00 in   Clear
6:53 PM 81.0 °F 82.7 °F 64.9 °F 58% 29.50 in 8.0 mi SE 25.3 mph 35.7 mph N/A   Clear
7:53 PM 78.1 °F - 63.0 °F 60% 29.50 in 8.0 mi SE 21.9 mph 34.5 mph 0.00 in   Clear
8:53 PM 75.9 °F - 63.0 °F 64% 29.49 in 8.0 mi SSE 19.6 mph 31.1 mph N/A   Clear
9:53 PM 75.0 °F - 64.0 °F 69% 29.52 in 10.0 mi SSE 20.7 mph 31.1 mph N/A   Clear
10:53 PM 73.9 °F - 64.0 °F 71% 29.52 in 10.0 mi SSE 17.3 mph 25.3 mph N/A   Clear
11:53 PM 73.0 °F - 64.9 °F 76% 29.52 in 10.0 mi SSE 12.7 mph 21.9 mph N/A   Partly Cloudy